Manistique, MI

2:47 PM EDT on May 20, 2018 (GMT -0400)
Schoolcraft County

Weather History for KISQ - June, 2013

Change the Weather History Date:

Thursday, June 27, 2013

  Actual Average Record
Temperature  
Mean Temperature 66 °F -  
Max Temperature 71 °F 70 °F 86 °F (1949)
Min Temperature 60 °F 51 °F 39 °F (2017)
Growing Degree Days 16 (Base 50)    
Moisture  
Dew Point 63 °F    
Average Humidity 92    
Maximum Humidity 99    
Minimum Humidity 76    
Precipitation  
Precipitation 0.05 in - - ()
Sea Level Pressure  
Sea Level Pressure 29.73 in    
Wind  
Wind Speed 3 mph (SSW)    
Max Wind Speed 13 mph    
Max Gust Speed 16 mph    
Visibility 10 miles    
Events Rain    
Averages and records for this station are not official NWS values.
T = Trace of Precipitation, MM = Missing Value Source: NWS Daily Summary

Daily Weather History Graph

Daily Weather History Graph

Search for Another Location

Airport or City:

Astronomy

Jun. 27, 2013 Rise Set
Actual Time 5:56 AM EDT 9:39 PM EDT
Civil Twilight 5:17 AM EDT 10:17 PM EDT
Nautical Twilight 4:25 AM EDT 11:09 PM EDT
Astronomical Twilight 3:14 AM EDT 12:20 AM EDT
Moon No Moon Rise 11:13 AM EDT (6/27)
Length of Visible Light 17h 00m
Length of Day
15h 43m
Waning Gibbous, 76% of the Moon is Illuminated
Jun 27
Waning Gibbous
Jun 30
Last Quarter
Jul 8
New
Jul 15
First Quarter
Jul 22
Full

Hourly Weather History & Observations

Time (EDT) Temp. Dew Point Humidity Pressure Visibility Wind Dir Wind Speed Gust Speed Precip Events Conditions
12:15 AM 63.9 °F 62.6 °F 96% 29.78 in 10.0 mi NNE 3.5 mph - N/A Rain Light Rain
12:34 AM 63.9 °F 62.6 °F 96% 29.76 in 10.0 mi NE 4.6 mph - 0.01 in Rain Light Rain
12:55 AM 63.9 °F 62.6 °F 96% 29.74 in 10.0 mi NNE 4.6 mph - 0.01 in Rain Light Rain
1:15 AM 64.0 °F 62.6 °F 95% 29.73 in 10.0 mi ENE 4.6 mph - N/A   Overcast
1:35 AM 64.0 °F 62.4 °F 94% 29.73 in 10.0 mi Calm Calm - N/A   Scattered Clouds
1:55 AM 63.7 °F 62.2 °F 95% 29.74 in 10.0 mi WNW 3.5 mph - N/A   Mostly Cloudy
2:14 AM 63.5 °F 62.2 °F 96% 29.75 in 10.0 mi Calm Calm - N/A   Overcast
2:35 AM 62.8 °F 62.1 °F 97% 29.75 in 10.0 mi Calm Calm - N/A   Mostly Cloudy
2:54 AM 62.6 °F 62.1 °F 98% 29.75 in 10.0 mi Calm Calm - N/A   Mostly Cloudy
3:15 AM 63.5 °F 62.6 °F 97% 29.76 in 10.0 mi West 6.9 mph - N/A   Overcast
3:34 AM 63.9 °F 62.8 °F 96% 29.77 in 10.0 mi West 4.6 mph - N/A   Overcast
3:55 AM 63.5 °F 62.8 °F 97% 29.75 in 10.0 mi Calm Calm - N/A   Overcast
4:15 AM 63.3 °F 62.6 °F 97% 29.74 in 10.0 mi Calm Calm - N/A   Overcast
4:35 AM 62.6 °F 61.9 °F 97% 29.74 in 10.0 mi Calm Calm - N/A   Mostly Cloudy
4:55 AM 61.7 °F 61.3 °F 99% 29.76 in 10.0 mi NW 3.5 mph - N/A   Mostly Cloudy
5:14 AM 62.1 °F 61.7 °F 99% 29.75 in 10.0 mi West 3.5 mph - N/A   Scattered Clouds
5:35 AM 62.1 °F 61.7 °F 99% 29.75 in 10.0 mi Calm Calm - N/A   Scattered Clouds
5:55 AM 61.7 °F 61.2 °F 98% 29.75 in 10.0 mi WNW 3.5 mph - N/A   Scattered Clouds
6:14 AM 61.5 °F 61.2 °F 99% 29.76 in 4.0 mi WNW 3.5 mph - N/A   Clear
6:35 AM 60.3 °F 59.9 °F 99% 29.75 in 4.0 mi Calm Calm - N/A   Clear
6:55 AM 62.2 °F 62.1 °F 99% 29.75 in 10.0 mi Calm Calm - N/A   Scattered Clouds
7:15 AM 63.0 °F 62.6 °F 99% 29.75 in 10.0 mi Calm Calm - N/A   Scattered Clouds
7:35 AM 64.4 °F 63.5 °F 97% 29.75 in 10.0 mi Calm Calm - N/A   Scattered Clouds
7:55 AM 64.8 °F 63.9 °F 97% 29.76 in 10.0 mi Calm Calm - N/A   Mostly Cloudy
8:15 AM 65.1 °F 64.2 °F 97% 29.76 in 10.0 mi SW 3.5 mph - N/A   Overcast
8:35 AM 64.9 °F 63.7 °F 96% 29.77 in 10.0 mi Calm Calm - N/A   Overcast
8:54 AM 64.9 °F 64.0 °F 97% 29.76 in 7.0 mi Calm Calm - 0.01 in Rain Light Rain
9:15 AM 64.9 °F 64.4 °F 98% 29.75 in 10.0 mi NE 3.5 mph - N/A   Overcast
9:35 AM 64.4 °F 63.7 °F 98% 29.76 in 10.0 mi NNE 4.6 mph - N/A Rain Light Rain
9:54 AM 64.4 °F 63.5 °F 97% 29.76 in 10.0 mi NE 4.6 mph - N/A   Overcast
10:15 AM 64.4 °F 63.7 °F 98% 29.75 in 5.0 mi ESE 4.6 mph - 0.03 in Rain Light Rain
10:34 AM 66.0 °F 65.1 °F 97% 29.74 in 10.0 mi ESE 3.5 mph - 0.03 in   Overcast
10:55 AM 67.3 °F 65.3 °F 93% 29.75 in 10.0 mi Calm Calm - 0.03 in   Overcast
11:14 AM 66.6 °F 64.4 °F 93% 29.74 in 10.0 mi SE 5.8 mph - N/A   Overcast
11:35 AM 67.3 °F 64.2 °F 90% 29.73 in 10.0 mi SSE 5.8 mph - N/A   Overcast
11:55 AM 68.5 °F 64.0 °F 85% 29.73 in 10.0 mi Calm Calm - N/A   Overcast
12:14 PM 70.5 °F 64.8 °F 82% 29.74 in 10.0 mi South 5.8 mph - N/A   Overcast
12:35 PM 71.4 °F 64.6 °F 79% 29.74 in 10.0 mi South 4.6 mph - N/A   Mostly Cloudy
12:55 PM 70.5 °F 64.0 °F 80% 29.73 in 10.0 mi SSE 9.2 mph - N/A   Scattered Clouds
1:15 PM 69.8 °F 65.1 °F 85% 29.73 in 10.0 mi SSE 5.8 mph - N/A   Clear
1:35 PM 69.3 °F 64.2 °F 84% 29.72 in 10.0 mi South 5.8 mph - N/A   Clear
1:55 PM 70.7 °F 64.9 °F 82% 29.72 in 10.0 mi South 6.9 mph - N/A   Clear
2:15 PM 70.3 °F 64.2 °F 81% 29.73 in 10.0 mi SSW 6.9 mph - N/A   Clear
2:35 PM 71.8 °F 64.0 °F 77% 29.71 in 10.0 mi South 8.1 mph - N/A   Clear
2:55 PM 71.1 °F 63.7 °F 77% 29.71 in 10.0 mi South 8.1 mph - N/A   Scattered Clouds
3:15 PM 71.6 °F 63.7 °F 76% 29.70 in 10.0 mi SSE 8.1 mph - N/A   Clear
3:34 PM 71.6 °F 63.9 °F 76% 29.70 in 10.0 mi SSE 8.1 mph - N/A   Clear
3:55 PM 67.5 °F 62.6 °F 84% 29.70 in 10.0 mi SSE 6.9 mph - N/A   Clear
4:15 PM 65.5 °F 62.2 °F 89% 29.72 in 10.0 mi SSE 4.6 mph - N/A   Clear
4:34 PM 64.9 °F 62.2 °F 91% 29.71 in 10.0 mi SSE 4.6 mph - N/A   Clear
4:55 PM 65.5 °F 62.8 °F 91% 29.70 in 10.0 mi SE 5.8 mph - N/A   Clear
5:15 PM 67.1 °F 63.9 °F 89% 29.70 in 10.0 mi East 10.4 mph - N/A   Clear
5:34 PM 66.9 °F 62.6 °F 86% 29.70 in 10.0 mi SSE 10.4 mph - N/A   Scattered Clouds
5:55 PM 66.2 °F 62.6 °F 88% 29.70 in 10.0 mi SSE 3.5 mph - N/A   Scattered Clouds
6:15 PM 65.7 °F 62.6 °F 90% 29.69 in 10.0 mi SSW 12.7 mph - N/A   Clear
6:35 PM 64.6 °F 62.1 °F 92% 29.70 in 10.0 mi SW 6.9 mph 16.1 mph N/A   Clear
6:55 PM 64.8 °F 62.2 °F 92% 29.70 in 10.0 mi SSW 5.8 mph - N/A   Clear
7:14 PM 64.6 °F 62.2 °F 92% 29.70 in 10.0 mi Calm Calm - N/A   Clear
7:35 PM 66.2 °F 62.2 °F 87% 29.70 in 10.0 mi Calm Calm - N/A   Clear
7:54 PM 66.2 °F 61.9 °F 86% 29.70 in 10.0 mi Calm Calm - N/A   Clear
8:15 PM 65.8 °F 62.1 °F 88% 29.71 in 10.0 mi NW 4.6 mph - N/A   Clear
8:35 PM 65.5 °F 61.7 °F 88% 29.70 in 10.0 mi NW 3.5 mph - N/A   Clear
8:54 PM 65.3 °F 61.5 °F 88% 29.69 in 10.0 mi West 4.6 mph - N/A   Clear
9:15 PM 64.4 °F 61.7 °F 91% 29.69 in 10.0 mi NE 3.5 mph - N/A   Clear
9:35 PM 63.9 °F 61.2 °F 91% 29.69 in 10.0 mi Calm Calm - N/A   Clear
9:55 PM 62.6 °F 60.6 °F 93% 29.70 in 10.0 mi WNW 4.6 mph - N/A   Clear
10:15 PM 62.8 °F 60.8 °F 93% 29.70 in 10.0 mi NW 6.9 mph - N/A   Clear
10:35 PM 62.4 °F 59.9 °F 91% 29.69 in 10.0 mi NNW 6.9 mph - N/A   Clear
10:55 PM 62.8 °F 60.1 °F 91% 29.69 in 10.0 mi Calm Calm - N/A   Clear
11:15 PM 62.6 °F 60.1 °F 91% 29.68 in 10.0 mi NNW 3.5 mph - N/A   Clear
11:34 PM 62.1 °F 60.1 °F 93% 29.68 in 10.0 mi NNW 3.5 mph - N/A   Clear
11:55 PM 61.9 °F 59.9 °F 93% 29.66 in 10.0 mi NW 4.6 mph - N/A   Clear